Location: ?????????
(53.2086°N, 54.0693°E)
Time: 22:37:37
(UTC+00:00)

Okean 1-7 - Pass Details

Date: 08 December 2019
Orbit: 590 x 619 km, 82.5° (Epoch: 24 January)

Event Time Altitude Azimuth Distance (km) Brightness Sun altitude
Rises 14:00:21 0° 157° (SSE) 2,852 6.4 -15.8°
Reaches altitude 10° 14:02:48 10° 145° (SE) 1,959 5.4 -16.2°
Enters shadow 14:05:22 24° 112° (ESE) 1,286 4.2 -16.5°
